SAOCOM 1A (43641 NORAD) Tracking and Keplerian Element Data

This shows tracking and keplerian element data for the satellite.

Feedback or suggestion? Click here.




ElementValue
Catalog43641
NameSAOCOM 1A
Epoch Orbit28485
Epoch Day13.12758593
Epoch Year2024
RAAN201.5943
Inclination97.885
Eccentricity0.0001582
Argument of Perigee88.0211
Mean Anonmoly272.1183
Mean Motion14.82154234
Decay Rate8.82E-06
L11 43641U 18076A 24013.12758593 .00000882 00000+0 11730-3 0 9992
L22 43641 97.8850 201.5943 0001582 88.0211 272.1183 14.82154234284852



Live tracking and technical data element details for SAOCOM 1A (NORAD 43641). SAOCOM 1A can be tracked NOW for your location showing map with azimuth and elevation plus other details from your city location.







IsCatalogInMostPopularTable: catalog: 43641, numindb: 583
Update: records affected: 1



GetName: 43641 SAOCOM 1A

Hit Count: updated at: Fri, 19 Apr 2024 12:33:09 GMT